Flag for Canada Weather past 2 weeks in Fort Simpson, Northwest Territories, Canada

Now
36 °F

Light rain. Low clouds.


Feels Like: 28 °F
Forecast: 35 / 41 °F
Wind: 10 mph from Northwest

Location: Fort Simpson

Current Time: Sep 1, 2015 at 8:16:39 AM

Latest Report: Sep 1, 2015 at 7:00 AM


Visibility: 10 mi

Pressure: 29.47 "Hg

Humidity: 93%

Dew point: 34 °F

Location of Fort SimpsonLocation

Historic Weather in Fort Simpson — Graph

°F

Fort Simpson temperature yesterday

Maximum temperature yesterday: 57 °F (at 12:00 AM)
Minimum temperature yesterday: 39 °F (at 11:00 PM)
Average temperature yesterday: 47 °F

Past Weeks' High & Low Weather Summary

 TemperatureHumidityPressure
High72 °F (Aug 26, 3:00 PM)100% (Aug 22, 7:00 AM)30.15 "Hg (Aug 22, 7:00 AM)
Low30 °F (Aug 22, 7:00 AM)33% (Aug 26, 4:00 PM)29.04 "Hg (Aug 30, 6:00 PM)
Average54 °F75%29.72 "Hg
* Reported Aug 17 7:00 AM — Sep 1 7:00 AM, Fort Simpson, Weather by CustomWeather, © 2015

Note: Actual official high and low records may vary slightly from our data, if they occured in-between our weather recording intervals... More about our weather records

Advertising

Fort Simpson weather history for previous 24 hours

 ConditionsComfort  
Time TempWeatherWind HumidityBarometerVisibility
7:00 AM
Tue, Sep 1
36 °FLight rain. Low clouds.10 mph93%29.47 "Hg10 mi
6:00 AM36 °FDrizzle. Low clouds.12 mph93%29.46 "Hg10 mi
5:48 AM36 °FDrizzle. Low clouds.12 mph93%29.45 "Hg10 mi
5:00 AM34 °FLight rain. Low clouds.9 mph93%29.44 "Hg8 mi
4:00 AM36 °FLight rain. Low clouds.12 mph93%29.43 "Hg8 mi
3:00 AM34 °FLight rain. Low clouds.9 mph93%29.42 "Hg8 mi
2:00 AM37 °FRain. Low clouds.12 mph93%29.40 "Hg8 mi
1:00 AM39 °FLight rain. Low clouds.10 mph93%29.39 "Hg10 mi
12:00 AM39 °FLight rain. Low clouds.14 mph93%29.37 "Hg10 mi
11:00 PM
Mon, Aug 31
39 °FLight rain. Low clouds.14 mph93%29.35 "Hg10 mi
9:00 PM41 °FLight rain. Low clouds.14 mph93%29.33 "Hg8 mi
8:00 PM41 °FLight rain. Low clouds.12 mph93%29.31 "Hg10 mi
7:00 PM41 °FLight rain. Fog.13 mph93%29.30 "Hg4 mi
6:47 PM41 °FLight rain. Fog.14 mph93%29.30 "Hg3 mi
6:00 PM43 °FDrizzle. Fog.16 mph93%29.28 "Hg3 mi
5:00 PM43 °FDrizzle. Fog.14 mph93%29.26 "Hg2 mi
4:56 PM43 °FDrizzle. Fog.13 mph93%29.26 "Hg2 mi
3:00 PM45 °FDrizzle. Fog.10 mph93%29.21 "Hg2 mi
2:00 PM48 °FDrizzle. Fog.15 mph94%29.17 "Hg1 mi
1:52 PM48 °FDrizzle. Fog.12 mph94%29.18 "Hg2 mi
1:00 PM50 °FDrizzle. Fog.14 mph88%29.15 "Hg6 mi
12:48 PM48 °FDrizzle. Fog.15 mph94%29.15 "Hg6 mi
12:00 PM50 °FLow clouds.14 mph88%29.13 "Hg15 mi
11:00 AM48 °FLow clouds.9 mph94%29.11 "Hg15 mi
10:00 AM48 °FSprinkles. More clouds than sun.15 mph94%29.09 "Hg15 mi
9:53 AM48 °FSprinkles. Mostly cloudy.13 mph94%29.09 "Hg15 mi
9:00 AM50 °FSprinkles. Partly sunny.6 mph88%29.08 "Hg15 mi
8:00 AM48 °FBroken clouds.6 mph94%29.08 "Hg15 mi
Weather by CustomWeather, © 2015

See weather overviewHow to use our weather pages